Tracking 35051 objects as of 17-Aug-2026
HD Live streaming from Space Station
objects crossing your sky now

STARLINK-30056

Track STARLINK-30056 now!
10-day predictions
STARLINK-30056 is classified as:


NORAD ID: 57622
Int'l Code: 2023-119W
Launch date: August 11, 2023
Source: United States (US)
Launch site: AIR FORCE EASTERN TEST RANGE (AFETR)
Your satellite tracking list
Your tracking list is empty




NASA's NSSDC Master Catalog

Two Line Element Set (TLE):
1 57622U 23119W   26229.45518930  .00001192  00000-0  52863-4 0  9995
2 57622  43.0030 253.6144 0001304 282.7143  77.3563 15.27571774167678
Source of the keplerian elements: AFSPC